W4KAB Weather Reports


time (UTC)temp
C
wind
direction
speed
KPH
gust
KPH
rain 1hr
cm
rain 24hr
cm
rain mn
cm
humidity
%
barometer
mb
20260504193709 26 260 1.6 3.2 0.00 0.00 0.00 38 1015.5
20260504193206 26 289 0.0 0.0 0.00 0.00 0.00 37 1015.7
20260504192704 26 355 0.0 0.0 0.00 0.00 0.00 36 1015.8
20260504192202 26 270 1.6 1.6 0.00 0.00 0.00 38 1015.8
20260504191701 26 259 1.6 3.2 0.00 0.00 0.00 36 1015.8
20260504191156 26 256 1.6 3.2 0.00 0.00 0.00 37 1015.9
20260504190652 25 204 0.0 0.0 0.00 0.00 0.00 36 1015.9
20260504190149 25 37 1.6 1.6 0.00 0.00 0.00 38 1016.0
20260504185645 26 277 3.2 4.8 0.00 0.00 0.00 41 1016.0
20260504185142 26 271 0.0 0.0 0.00 0.00 0.00 40 1016.3
20260504184638 25 48 1.6 4.8 0.00 0.00 0.00 39 1016.0
20260504184133 26 242 1.6 3.2 0.00 0.00 0.00 41 1016.0
20260504183631 25 217 0.0 0.0 0.00 0.00 0.00 36 1016.1
20260504183128 25 242 0.0 1.6 0.00 0.00 0.00 37 1016.3
20260504182626 25 246 1.6 3.2 0.00 0.00 0.00 39 1016.7
20260504182123 25 224 1.6 1.6 0.00 0.00 0.00 39 1016.3
20260504181620 25 275 0.0 0.0 0.00 0.00 0.00 39 1016.6
20260504181118 25 306 1.6 1.6 0.00 0.00 0.00 38 1016.7
20260504180617 25 258 0.0 0.0 0.00 0.00 0.00 40 1016.8
20260504180115 24 281 0.0 0.0 0.00 0.00 0.00 40 1016.9
20260504175612 23 271 0.0 0.0 0.00 0.00 0.00 41 1016.8
20260504175109 24 223 0.0 0.0 0.00 0.00 0.00 40 1016.8
20260504174607 24 260 0.0 0.0 0.00 0.00 0.00 41 1016.9
20260504174103 23 297 0.0 0.0 0.00 0.00 0.00 41 1017.0
20260504173600 23 237 0.0 0.0 0.00 0.00 0.00 42 1017.2
20260504173058 23 238 0.0 1.6 0.00 0.00 0.00 42 1017.1
20260504172554 24 4 1.6 1.6 0.00 0.00 0.00 42 1017.2
20260504172050 24 231 0.0 0.0 0.00 0.00 0.00 42 1016.9
20260504171547 23 335 1.6 3.2 0.00 0.00 0.00 41 1016.9
20260504171044 23 270 0.0 0.0 0.00 0.00 0.00 41 1016.9
20260504170540 23 265 0.0 0.0 0.00 0.00 0.00 43 1017.3
20260504150924 19 198 0.0 0.0 0.00 0.00 0.00 44 1019.1
20260504150420 19 240 1.6 3.2 0.00 0.00 0.00 44 1019.1
20260504140847 16 260 0.0 1.6 0.00 0.00 0.00 51 1018.6
20260504140343 16 254 0.0 0.0 0.00 0.00 0.00 52 1018.7
20260504130812 9 285 0.0 0.0 0.00 0.00 0.00 85 1018.8
20260504130308 9 272 0.0 0.0 0.00 0.00 0.00 86 1018.7
20260504120232 6 255 0.0 0.0 0.00 0.00 0.00 90 1018.4
20260504110659 3 300 0.0 0.0 0.00 0.00 0.00 96 1018.4
20260504110155 3 272 0.0 0.0 0.00 0.00 0.00 96 1018.3
20260504100120 4 277 0.0 0.0 0.00 0.00 0.00 95 1018.5
20260504081513 5 287 0.0 0.0 0.00 0.00 0.00 91 1018.1
20260504081008 5 273 0.0 0.0 0.00 0.00 0.00 90 1018.3
20260504080504 6 272 0.0 0.0 0.00 0.00 0.00 90 1018.1
20260504050317 8 265 0.0 0.0 0.00 0.00 0.00 75 1018.4
20260504045814 8 261 0.0 0.0 0.00 0.00 0.00 76 1018.5
20260504045309 8 270 0.0 0.0 0.00 0.00 0.00 75 1018.4
20260504044806 8 267 0.0 0.0 0.00 0.00 0.00 76 1018.6
20260504044304 8 266 0.0 0.0 0.00 0.00 0.00 77 1018.6
20260504043801 8 264 0.0 0.0 0.00 0.00 0.00 75 1018.5
20260504043258 8 266 0.0 0.0 0.00 0.00 0.00 74 1018.6
20260504042755 8 265 0.0 0.0 0.00 0.00 0.00 74 1018.4
20260504042251 8 266 0.0 0.0 0.00 0.00 0.00 74 1018.4
20260504041748 8 266 0.0 0.0 0.00 0.00 0.00 74 1018.4
20260504041244 8 265 0.0 0.0 0.00 0.00 0.00 75 1018.3
20260504040740 8 287 0.0 0.0 0.00 0.00 0.00 75 1018.2
20260504040238 8 280 0.0 0.0 0.00 0.00 0.00 74 1018.4
20260504035734 8 285 0.0 0.0 0.00 0.00 0.00 74 1018.2
20260504035231 8 281 0.0 0.0 0.00 0.00 0.00 72 1018.1
20260504034729 8 264 0.0 0.0 0.00 0.00 0.00 72 1018.1
20260504034226 8 272 0.0 0.0 0.00 0.00 0.00 73 1018.1
20260504033723 8 280 0.0 0.0 0.00 0.00 0.00 72 1018.1
20260504033221 8 286 0.0 0.0 0.00 0.00 0.00 71 1018.1
20260504032717 8 294 0.0 0.0 0.00 0.00 0.00 70 1018.0
20260504032215 9 294 0.0 0.0 0.00 0.00 0.00 73 1018.2
20260504031711 9 274 0.0 0.0 0.00 0.00 0.00 71 1018.4
20260504031208 9 272 0.0 0.0 0.00 0.00 0.00 72 1018.3
20260504030704 9 275 0.0 0.0 0.00 0.00 0.00 71 1018.3
20260504030202 10 266 0.0 0.0 0.00 0.00 0.00 72 1018.2
20260504025658 10 266 0.0 0.0 0.00 0.00 0.00 71 1018.5
20260504025155 10 271 0.0 0.0 0.00 0.00 0.00 69 1018.4
20260504024652 10 279 0.0 0.0 0.00 0.00 0.00 68 1018.3
20260504024148 10 301 0.0 0.0 0.00 0.00 0.00 68 1018.5
20260504023645 11 271 0.0 0.0 0.00 0.00 0.00 65 1018.2
20260504023141 11 264 0.0 0.0 0.00 0.00 0.00 64 1018.4
20260504022638 11 266 0.0 0.0 0.00 0.00 0.00 64 1018.4
20260504022133 11 271 0.0 0.0 0.00 0.00 0.00 64 1018.5
20260504021632 11 291 0.0 0.0 0.00 0.00 0.00 63 1018.4
20260504021128 12 277 0.0 0.0 0.00 0.00 0.00 62 1018.0
20260504020625 12 255 0.0 0.0 0.00 0.00 0.00 57 1018.1
20260504020121 12 280 0.0 0.0 0.00 0.00 0.00 57 1018.1
20260504015618 12 283 0.0 0.0 0.00 0.00 0.00 58 1018.0
20260504015114 12 264 0.0 0.0 0.00 0.00 0.00 60 1018.0
20260504014610 12 262 0.0 0.0 0.00 0.00 0.00 58 1017.8
20260504014108 12 272 0.0 0.0 0.00 0.00 0.00 58 1017.7
20260504013605 12 251 0.0 0.0 0.00 0.00 0.00 58 1017.6
20260504013102 12 92 0.0 0.0 0.00 0.00 0.00 58 1017.5
20260504012559 13 92 0.0 0.0 0.00 0.00 0.00 56 1017.3
20260504012057 13 191 0.0 0.0 0.00 0.00 0.00 54 1017.2
20260504011554 13 277 0.0 0.0 0.00 0.00 0.00 54 1017.3
20260504011050 13 225 0.0 0.0 0.00 0.00 0.00 53 1017.2
20260504010545 13 209 0.0 0.0 0.00 0.00 0.00 53 1017.0
20260504010042 13 264 0.0 0.0 0.00 0.00 0.00 54 1017.3
20260504005538 13 263 0.0 0.0 0.00 0.00 0.00 53 1017.3
20260504005036 13 88 0.0 0.0 0.00 0.00 0.00 55 1017.2
20260504004534 13 88 0.0 0.0 0.00 0.00 0.00 54 1017.2
20260504004030 13 88 0.0 0.0 0.00 0.00 0.00 55 1017.2
20260504003526 13 88 0.0 0.0 0.00 0.00 0.00 54 1016.8
20260504003023 13 88 0.0 0.0 0.00 0.00 0.00 53 1017.0
20260504002520 13 86 0.0 0.0 0.00 0.00 0.00 52 1017.0
20260504002018 14 87 0.0 0.0 0.00 0.00 0.00 51 1016.7
20260504001515 14 68 0.0 0.0 0.00 0.00 0.00 50 1016.7
20260504001011 15 75 0.0 0.0 0.00 0.00 0.00 50 1016.7
20260504000509 15 72 0.0 0.0 0.00 0.00 0.00 49 1016.8
20260504000006 15 76 0.0 0.0 0.00 0.00 0.00 49 1016.8
20260503235504 15 146 0.0 0.0 0.00 0.00 0.00 48 1016.8
20260503235001 16 213 0.0 0.0 0.00 0.00 0.00 48 1016.7
20260503234458 16 193 0.0 0.0 0.00 0.00 0.00 46 1016.7
20260503233956 16 169 0.0 0.0 0.00 0.00 0.00 45 1016.6
20260503233452 17 144 0.0 0.0 0.00 0.00 0.00 44 1016.4
20260503232949 18 86 0.0 0.0 0.00 0.00 0.00 42 1016.7
20260503232446 18 270 0.0 0.0 0.00 0.00 0.00 40 1016.7
20260503231944 18 252 0.0 0.0 0.00 0.00 0.00 35 1016.7
20260503231441 18 268 0.0 0.0 0.00 0.00 0.00 36 1016.6
20260503230937 18 262 0.0 0.0 0.00 0.00 0.00 34 1016.7
20260503230434 18 354 0.0 0.0 0.00 0.00 0.00 33 1016.6
20260503225932 18 281 0.0 0.0 0.00 0.00 0.00 34 1016.4
20260503225428 18 269 0.0 0.0 0.00 0.00 0.00 39 1016.4
20260503224924 18 170 0.0 0.0 0.00 0.00 0.00 40 1016.7
20260503224421 18 257 0.0 0.0 0.00 0.00 0.00 33 1016.8
20260503223919 19 265 0.0 0.0 0.00 0.00 0.00 33 1016.6
20260503223417 19 155 0.0 0.0 0.00 0.00 0.00 39 1016.7
20260503222917 19 268 0.0 0.0 0.00 0.00 0.00 38 1016.7
20260503222416 19 291 0.0 0.0 0.00 0.00 0.00 31 1016.7
20260503221914 20 347 0.0 0.0 0.00 0.00 0.00 32 1016.8
20260503221412 20 358 1.6 3.2 0.00 0.00 0.00 32 1017.0
20260503220908 20 254 0.0 0.0 0.00 0.00 0.00 36 1016.6
20260503220404 20 258 0.0 0.0 0.00 0.00 0.00 31 1016.9
20260503215901 20 266 1.6 3.2 0.00 0.00 0.00 32 1016.3
20260503215358 20 266 3.2 3.2 0.00 0.00 0.00 32 1016.8
20260503214856 20 315 0.0 0.0 0.00 0.00 0.00 31 1017.0
20260503214353 20 274 0.0 3.2 0.00 0.00 0.00 31 1016.9
20260503213850 20 266 0.0 0.0 0.00 0.00 0.00 32 1017.1
20260503213348 20 31 0.0 0.0 0.00 0.00 0.00 29 1017.2
20260503212845 20 338 0.0 0.0 0.00 0.00 0.00 29 1017.3
20260503212343 20 239 1.6 3.2 0.00 0.00 0.00 30 1017.3
20260503211839 20 281 0.0 0.0 0.00 0.00 0.00 26 1017.4
20260503211336 20 297 1.6 3.2 0.00 0.00 0.00 28 1017.3
20260503210831 20 247 0.0 0.0 0.00 0.00 0.00 31 1017.5
20260503210329 20 282 0.0 0.0 0.00 0.00 0.00 29 1017.4
20260503205824 20 253 0.0 0.0 0.00 0.00 0.00 27 1017.3
20260503205321 20 242 0.0 0.0 0.00 0.00 0.00 27 1017.5
20260503204817 20 254 3.2 3.2 0.00 0.00 0.00 27 1017.2
20260503204315 20 278 0.0 0.0 0.00 0.00 0.00 25 1017.5
20260503203812 20 262 0.0 0.0 0.00 0.00 0.00 25 1017.7
20260503203309 20 248 1.6 4.8 0.00 0.00 0.00 26 1017.6
20260503202806 20 359 0.0 1.6 0.00 0.00 0.00 25 1017.6
20260503202304 20 241 0.0 0.0 0.00 0.00 0.00 23 1017.6
20260503201802 21 270 3.2 8.0 0.00 0.00 0.00 24 1017.9
20260503201259 21 320 0.0 0.0 0.00 0.00 0.00 25 1017.9
20260503200756 21 262 0.0 0.0 0.00 0.00 0.00 24 1018.0
20260503200252 21 223 0.0 0.0 0.00 0.00 0.00 23 1017.8
20260503195749 20 264 0.0 0.0 0.00 0.00 0.00 26 1018.0
20260503195246 20 59 3.2 3.2 0.00 0.00 0.00 25 1017.9
20260503194744 20 243 0.0 0.0 0.00 0.00 0.00 24 1018.2
20260503194239 20 345 0.0 0.0 0.00 0.00 0.00 27 1018.2